Wind_Speed
8 8 8 8 8 8 6 6 6 6 6 6 6 7 7 7 6 6 6 6 7 6 7 7 7 6 7 8 9 10 11 11 12 12 12 12 11 11 11 10 10 10 9 9 8 8 8 8 7
7 7 7 8 8 6 5 5 6 6 6 5 5 6 6 6 6 5 5 5 6 5 6 6 7 6 7 7 8 9 10 10 10 10 11 10 10 10 9 9 9 8 8 8 7 7 7 7 7
7 6 6 7 6 3 4 5 5 5 6 6 5 5 5 5 5 4 4 4 4 5 5 6 6 6 7 7 8 8 9 9 9 9 9 9 9 8 8 8 8 8 7 7 7 7 6 6 6
6 6 6 5 4 4 4 5 5 5 6 6 5 4 4 4 4 4 4 3 4 4 5 5 5 6 7 7 7 8 9 9 8 9 9 8 8 7 7 7 7 7 7 6 6 6 5 5 5
6 5 5 4 4 4 4 4 5 5 5 5 4 4 4 4 3 3 2 3 3 3 5 5 6 6 7 7 8 8 9 8 8 8 8 8 7 7 7 6 6 6 6 6 6 5 5 4 4
6 5 4 3 4 4 4 4 5 5 5 5 4 4 4 3 3 2 1 2 2 2 4 5 6 6 7 7 8 8 8 8 8 8 8 7 7 6 6 6 5 5 5 5 5 5 4 4 4
7 5 4 4 5 5 4 4 4 5 5 5 4 4 3 3 3 2 1 1 1 2 4 5 6 6 7 8 8 8 8 8 8 8 7 7 6 6 5 5 5 5 5 5 4 4 4 4 3
8 6 5 5 6 6 6 5 4 5 5 5 4 3 3 2 3 3 2 1 1 2 3 5 6 7 7 8 8 8 8 8 8 8 8 7 6 6 5 5 5 5 5 4 4 3 3 3 3
9 7 7 7 7 7 6 5 5 5 5 5 4 3 3 2 2 2 1 0 1 2 3 5 6 7 7 8 8 8 8 8 8 8 8 7 6 6 5 5 5 5 4 3 3 3 2 2 2
10 9 9 9 8 7 7 6 5 5 5 4 4 3 2 2 2 2 1 0 2 2 3 4 6 7 8 9 9 9 9 8 8 8 8 7 6 5 5 5 5 4 3 3 3 2 2 2 2
12 12 11 10 9 8 7 7 6 5 4 3 3 3 3 2 1 2 2 1 2 3 4 5 7 7 8 9 9 9 9 9 9 8 7 6 6 5 5 5 4 4 3 2 2 2 2 2 2
14 14 13 11 10 9 7 7 6 6 6 5 5 4 3 2 2 2 3 3 3 4 4 5 7 8 9 9 9 9 10 9 9 8 8 7 6 5 5 5 4 4 3 3 2 2 2 2 2
16 16 15 13 12 10 8 8 7 6 6 6 6 5 4 3 3 4 4 4 4 4 5 6 7 9 10 10 10 10 10 10 9 9 8 7 7 6 6 6 5 4 3 3 3 3 2 2 2
18 18 17 15 13 11 10 9 8 7 7 7 7 6 6 5 4 5 5 5 5 5 6 6 7 8 10 10 11 11 11 11 10 10 9 8 8 7 6 6 5 5 4 4 3 3 2 2 2
20 19 18 17 15 13 12 11 10 9 8 8 8 7 7 6 6 6 6 6 5 6 7 8 8 8 9 11 11 12 12 12 11 11 10 9 9 8 7 6 6 6 5 5 4 3 2 2 2
21 20 19 19 17 15 14 13 13 11 10 9 9 9 9 8 7 7 6 6 6 6 7 8 8 8 9 10 11 12 12 12 11 11 11 11 10 9 8 7 7 7 6 5 4 3 2 2 2
22 20 20 20 19 17 16 15 16 13 12 11 10 10 10 9 8 7 7 7 7 7 8 8 9 9 10 9 10 11 12 12 12 12 12 12 11 10 9 8 8 8 7 6 5 4 3 2 2
22 21 22 22 20 18 17 17 17 15 14 13 12 11 11 10 10 9 9 8 8 8 8 9 9 9 10 10 10 11 13 12 12 13 12 12 12 11 10 10 9 8 8 7 6 5 4 3 2
25 24 23 24 22 19 18 18 17 16 15 14 13 13 13 13 13 11 10 10 9 8 10 10 10 10 10 10 10 11 13 13 12 13 13 12 12 13 12 11 10 10 9 8 7 6 5 5 4
25 25 25 25 23 21 20 19 18 17 16 15 15 14 14 14 15 13 11 10 10 10 11 12 11 11 11 11 11 11 12 13 12 12 13 13 13 12 13 12 11 10 10 9 8 8 7 6 5
26 26 26 26 24 22 21 20 19 18 17 16 16 15 15 15 16 14 12 11 11 10 10 12 13 12 13 12 12 12 13 13 13 13 13 14 13 13 13 13 13 12 11 11 10 9 8 7 6
26 27 28 27 24 24 22 20 20 18 18 17 16 16 15 15 16 15 13 12 11 12 12 12 13 14 14 14 13 13 14 14 14 14 14 15 14 14 14 14 14 14 13 12 11 10 9 8 8
28 28 28 27 26 25 23 21 20 19 18 17 16 16 16 16 16 16 14 14 13 12 13 13 13 14 13 14 14 14 14 15 15 15 15 15 15 14 15 15 16 15 14 13 13 12 10 9 9
30 29 29 28 27 27 24 22 21 19 17 17 16 16 16 16 16 16 15 15 14 13 13 13 14 15 14 14 15 14 15 15 15 15 15 15 15 15 16 16 16 16 15 15 14 13 12 11 10
31 30 29 29 28 26 24 23 21 19 17 17 17 16 16 15 15 16 16 16 15 13 13 13 14 15 15 15 15 15 16 15 16 16 16 16 16 16 16 17 16 16 16 16 15 14 13 12 11
31 30 29 27 25 25 25 23 21 18 18 18 17 17 17 15 15 16 16 15 14 13 13 13 13 13 13 15 15 14 16 16 16 17 16 16 16 16 17 17 17 17 17 16 16 15 14 14 13
32 31 30 28 26 24 24 22 20 18 17 17 17 17 17 16 15 15 15 15 14 14 13 13 13 13 13 13 15 15 15 16 17 18 18 17 16 17 18 18 18 18 18 17 17 16 16 16 15
32 31 32 30 27 23 23 22 19 17 16 16 16 16 16 16 16 15 15 14 14 14 14 14 13 13 13 14 15 15 16 16 17 18 19 18 17 18 18 18 18 18 19 19 18 18 18 17 17
33 33 33 30 28 22 20 20 19 18 17 16 16 16 16 15 15 15 15 15 14 14 14 14 14 14 14 14 15 16 16 16 17 17 18 18 17 18 19 19 19 19 19 19 19 20 19 19 18
32 32 31 30 28 25 20 19 20 18 17 17 17 16 16 15 15 15 15 15 15 14 14 13 13 14 14 15 16 16 16 17 17 17 18 18 18 18 18 19 19 19 19 20 20 20 19 19 19
Wind_Direction
21 25 28 30 34 41 41 40 40 39 38 38 44 48 50 57 70 80 92 98 101 108 119 124 126 130 135 138 137 133 129 124 121 118 115 110 106 100 96 95 94 93 92 89 87 86 86 84 84
13 17 21 27 39 38 25 26 27 31 34 35 39 45 47 53 61 75 90 106 111 114 122 130 132 138 142 145 144 141 137 130 126 124 119 115 111 106 102 100 98 95 92 90 88 88 88 87 87
360 6 13 22 32 30 2 3 12 25 31 33 31 38 46 53 58 68 83 107 124 130 134 136 140 145 150 151 151 148 144 136 131 128 124 119 117 112 109 105 105 100 94 91 91 90 88 90 91
344 353 1 10 9 3 356 356 5 14 17 23 19 26 34 48 55 66 81 104 129 137 143 145 149 155 156 157 157 152 149 143 137 133 129 126 124 119 113 110 108 103 98 94 93 90 88 90 93
327 337 350 353 339 340 351 354 356 358 2 8 13 21 32 42 50 61 82 106 131 146 152 153 159 164 165 165 164 158 154 149 145 141 135 132 129 126 121 116 112 107 103 101 96 92 89 90 95
312 320 330 309 312 320 334 347 352 358 355 360 4 12 24 31 45 53 89 121 135 153 168 166 171 174 173 173 171 167 161 156 152 147 142 138 134 132 128 122 118 114 110 107 101 96 90 90 94
296 299 296 289 294 302 314 330 344 354 350 349 351 4 18 35 47 61 89 117 155 161 181 181 184 186 183 179 177 172 169 166 160 155 151 148 142 137 135 131 126 121 116 113 108 102 92 91 94
281 282 280 279 284 289 300 312 326 337 338 339 341 347 10 34 47 56 83 114 192 184 186 193 196 196 191 185 181 177 174 173 169 163 159 155 150 144 143 141 136 127 120 115 107 101 95 89 88
271 269 267 268 274 282 289 294 308 326 326 333 341 346 17 44 47 52 77 136 204 203 201 202 207 204 198 190 186 184 182 179 175 170 165 161 157 152 149 148 143 134 127 117 107 106 98 86 87
264 261 257 263 270 277 279 280 288 306 317 324 331 343 4 32 33 36 38 232 221 223 217 216 210 206 203 199 194 191 189 187 182 175 171 169 167 164 161 156 150 141 133 119 115 113 103 92 93
259 257 258 263 268 273 272 267 271 283 292 306 320 323 346 9 11 9 349 285 241 233 234 229 213 206 204 204 201 197 195 193 188 182 178 178 179 177 174 166 160 157 148 136 125 118 114 100 92
256 256 258 261 265 267 266 262 262 267 272 274 290 306 308 324 319 329 326 296 252 238 240 234 219 211 211 210 208 205 201 199 195 190 189 189 188 186 185 180 173 173 163 157 139 127 116 103 86
251 253 256 259 262 262 261 256 260 262 271 275 277 287 281 278 288 301 302 293 263 241 236 233 226 216 216 216 214 212 207 206 204 199 197 199 198 194 190 191 186 179 169 160 153 144 118 106 91
248 251 255 257 259 257 258 256 256 260 265 271 272 277 276 278 288 292 291 285 266 246 240 237 233 224 220 220 220 217 213 211 212 209 208 206 204 200 196 196 192 182 171 164 160 152 131 116 118
248 250 253 255 256 255 254 255 254 254 256 264 271 278 277 278 280 289 289 276 264 250 242 242 237 232 226 224 223 221 217 216 215 214 214 211 208 204 200 199 198 186 179 171 166 158 141 133 142
245 247 250 252 252 251 250 253 252 249 251 259 269 276 275 274 274 283 288 277 269 256 247 245 240 236 231 228 225 225 221 219 218 218 218 215 211 210 205 202 198 192 187 182 177 171 160 146 149
242 243 245 249 248 249 247 246 250 248 249 254 262 269 272 273 272 280 285 277 271 263 253 249 244 238 234 231 229 227 223 221 222 224 222 217 215 213 210 205 200 196 193 191 189 190 184 181 184
239 239 240 245 245 246 245 245 249 247 249 254 259 263 269 270 272 277 280 278 271 262 256 251 245 242 242 241 235 230 226 223 226 228 222 218 217 216 214 211 207 204 202 199 200 203 203 205 208
234 234 237 241 243 242 242 242 246 245 248 253 257 260 264 266 270 274 278 278 274 268 258 251 245 241 240 239 237 233 227 224 226 226 222 221 219 220 218 215 212 209 206 206 211 210 211 215 219
232 232 235 240 241 241 242 242 244 245 246 251 255 258 259 262 268 271 274 273 273 272 267 252 245 238 235 238 242 237 230 225 225 223 222 222 224 222 219 216 215 215 214 214 215 216 218 222 225
230 229 232 237 240 241 243 244 245 245 247 251 253 256 259 261 265 267 269 270 271 274 266 253 247 243 238 238 239 235 232 230 230 224 223 224 226 224 224 223 220 219 220 219 217 219 222 224 226
228 228 230 234 237 240 241 242 247 247 249 251 253 255 259 259 262 264 264 267 270 271 265 259 250 247 244 241 238 235 232 231 229 227 225 226 227 227 226 222 219 219 221 222 222 222 223 225 228
225 226 229 232 235 238 240 237 246 248 250 251 252 253 255 257 260 262 261 264 267 267 264 261 253 247 243 243 239 237 234 233 228 228 228 228 228 229 228 223 221 222 224 225 225 223 224 227 229
223 224 228 231 234 237 240 239 242 250 249 250 251 251 251 253 256 257 257 260 265 265 264 261 252 247 245 244 239 238 235 232 227 226 227 229 230 232 229 225 224 224 226 228 228 229 230 230 231
221 222 226 229 233 237 240 240 241 246 245 246 247 247 246 249 253 253 254 258 262 264 265 265 254 252 249 244 240 240 236 233 230 229 231 231 231 232 230 229 227 228 228 230 231 233 233 234 235
222 223 225 229 236 237 241 240 243 243 245 245 245 244 243 247 252 253 254 257 258 262 265 266 255 252 246 244 238 237 234 233 233 233 232 233 234 234 232 232 231 232 231 231 232 234 236 237 238
221 222 224 227 231 232 242 241 243 242 244 244 245 243 242 246 252 254 256 257 255 259 262 259 254 248 246 243 237 238 236 236 235 235 236 236 238 237 235 235 237 234 233 233 234 236 239 240 241
221 222 223 224 226 230 240 243 242 241 240 242 242 241 241 246 249 254 256 254 254 257 258 254 250 248 247 245 240 241 241 241 239 239 238 239 240 238 236 240 240 237 235 235 236 238 242 243 243
221 221 223 225 226 226 236 243 239 237 238 240 239 238 240 245 248 249 253 252 254 255 255 254 251 251 248 246 242 242 243 245 243 240 237 237 239 240 239 241 242 239 238 237 238 240 243 244 247
221 223 225 225 228 226 225 241 239 234 235 238 239 239 240 245 249 249 250 250 251 251 250 251 251 250 249 244 244 244 244 245 243 243 240 239 242 242 242 241 241 239 240 240 241 242 245 246 248
Height
5895 5895 5894 5895 5895 5895 5895 5894 5893 5892 5891 5890 5889 5888 5887 5887 5887 5888 5886 5884 5884 5884 5884 5884 5885 5885 5885 5886 5886 5886 5886 5887 5887 5887 5887 5888 5888 5888 5888 5889 5889 5889 5889 5889 5889 5889 5889 5889 5889
5895 5895 5895 5895 5895 5896 5895 5894 5893 5892 5891 5890 5889 5888 5887 5886 5886 5886 5885 5884 5884 5884 5884 5885 5885 5886 5886 5886 5887 5887 5887 5887 5888 5888 5889 5889 5889 5889 5889 5890 5890 5890 5890 5890 5891 5891 5891 5891 5891
5895 5894 5895 5895 5895 5896 5895 5894 5893 5891 5890 5889 5889 5888 5887 5886 5886 5885 5885 5885 5885 5885 5885 5885 5885 5886 5886 5887 5887 5887 5888 5888 5889 5889 5889 5890 5890 5890 5890 5891 5891 5891 5891 5891 5891 5891 5891 5891 5891
5894 5895 5895 5895 5895 5895 5894 5893 5892 5891 5890 5889 5888 5888 5887 5886 5885 5885 5885 5884 5885 5885 5885 5885 5886 5886 5887 5887 5888 5888 5888 5889 5889 5890 5890 5890 5891 5891 5891 5892 5892 5892 5892 5892 5892 5892 5892 5892 5892
5893 5894 5894 5894 5894 5894 5893 5893 5892 5891 5890 5889 5888 5887 5886 5885 5885 5884 5884 5884 5884 5885 5885 5885 5886 5887 5887 5887 5888 5888 5889 5889 5890 5890 5891 5891 5891 5892 5892 5892 5893 5893 5893 5893 5893 5893 5893 5893 5893
5893 5893 5894 5894 5893 5893 5893 5892 5891 5890 5890 5889 5888 5887 5886 5885 5885 5884 5884 5884 5884 5885 5885 5885 5886 5886 5887 5888 5888 5889 5889 5890 5890 5891 5891 5891 5892 5892 5893 5893 5893 5893 5893 5893 5893 5893 5893 5893 5893
5892 5892 5893 5893 5892 5892 5892 5891 5891 5890 5889 5888 5887 5886 5885 5884 5884 5884 5884 5884 5884 5884 5885 5885 5886 5886 5887 5887 5888 5889 5889 5890 5890 5891 5891 5892 5892 5893 5893 5893 5893 5894 5894 5894 5894 5894 5894 5894 5894
5889 5891 5891 5891 5891 5890 5890 5890 5890 5889 5888 5888 5887 5886 5885 5884 5884 5883 5883 5884 5884 5884 5884 5885 5885 5886 5886 5887 5888 5888 5889 5890 5891 5891 5892 5892 5892 5893 5893 5893 5894 5894 5894 5894 5894 5894 5894 5894 5894
5886 5889 5889 5889 5889 5889 5889 5889 5889 5888 5887 5886 5886 5885 5884 5883 5883 5883 5883 5883 5883 5884 5884 5885 5885 5885 5886 5887 5887 5888 5889 5890 5890 5891 5891 5892 5892 5893 5893 5893 5894 5894 5894 5894 5895 5895 5895 5895 5895
5884 5886 5886 5886 5887 5887 5887 5888 5888 5887 5886 5886 5885 5885 5884 5883 5882 5882 5883 5883 5883 5883 5883 5884 5884 5885 5885 5886 5887 5888 5888 5889 5890 5891 5891 5892 5892 5893 5893 5893 5894 5894 5894 5895 5895 5895 5895 5895 5895
5882 5883 5883 5883 5884 5885 5885 5886 5886 5886 5886 5885 5885 5884 5883 5883 5882 5882 5882 5882 5882 5882 5883 5883 5883 5884 5885 5886 5886 5887 5888 5889 5890 5890 5891 5892 5892 5892 5893 5893 5893 5894 5894 5895 5895 5895 5895 5895 5895
5878 5879 5879 5881 5882 5883 5883 5884 5885 5885 5885 5884 5884 5883 5883 5882 5882 5882 5882 5882 5882 5881 5882 5882 5882 5883 5884 5885 5886 5886 5887 5888 5889 5890 5891 5891 5892 5892 5893 5893 5894 5894 5894 5895 5895 5895 5895 5895 5895
5875 5875 5876 5878 5879 5880 5881 5882 5883 5883 5883 5883 5883 5882 5882 5882 5881 5881 5881 5880 5880 5880 5881 5881 5881 5882 5882 5883 5884 5885 5886 5887 5888 5889 5890 5891 5891 5892 5893 5893 5893 5894 5894 5894 5895 5895 5895 5895 5895
5871 5872 5873 5875 5876 5878 5879 5880 5881 5882 5882 5882 5882 5881 5881 5881 5880 5880 5879 5879 5879 5879 5879 5880 5880 5880 5881 5882 5883 5884 5885 5886 5887 5888 5889 5890 5891 5891 5892 5893 5893 5894 5894 5894 5895 5895 5895 5895 5895
5867 5869 5870 5872 5873 5875 5877 5878 5879 5879 5880 5880 5880 5880 5880 5880 5879 5878 5878 5877 5877 5877 5878 5878 5878 5879 5879 5880 5881 5882 5883 5884 5886 5887 5888 5889 5890 5891 5891 5892 5893 5893 5894 5894 5894 5895 5895 5895 5895
5863 5865 5867 5869 5870 5872 5875 5876 5876 5877 5877 5878 5878 5878 5878 5878 5877 5877 5876 5875 5875 5876 5876 5876 5876 5877 5877 5878 5879 5880 5881 5883 5884 5885 5887 5888 5889 5890 5890 5891 5892 5893 5893 5894 5894 5895 5895 5895 5895
5859 5862 5864 5865 5866 5868 5871 5873 5873 5874 5875 5876 5876 5876 5876 5876 5875 5875 5874 5874 5874 5874 5874 5874 5874 5875 5876 5877 5877 5878 5880 5881 5882 5883 5885 5886 5887 5889 5889 5890 5891 5892 5893 5893 5894 5895 5895 5895 5895
5856 5858 5859 5860 5862 5865 5867 5869 5869 5871 5872 5873 5873 5874 5874 5873 5873 5873 5872 5872 5872 5872 5872 5872 5873 5873 5874 5874 5875 5876 5877 5878 5880 5881 5883 5884 5886 5887 5888 5889 5890 5891 5892 5893 5893 5894 5894 5895 5895
5850 5852 5854 5856 5858 5861 5863 5865 5866 5867 5869 5870 5870 5871 5871 5871 5871 5871 5870 5870 5870 5869 5870 5870 5870 5871 5872 5872 5873 5874 5875 5876 5878 5879 5881 5882 5884 5885 5887 5888 5889 5890 5891 5892 5893 5893 5894 5894 5894
5844 5847 5849 5851 5853 5856 5858 5861 5862 5863 5865 5866 5867 5868 5868 5868 5868 5868 5868 5868 5867 5867 5867 5867 5868 5868 5869 5870 5871 5872 5873 5874 5875 5877 5878 5880 5882 5883 5885 5887 5888 5889 5890 5891 5892 5892 5893 5893 5893
5838 5842 5844 5846 5849 5852 5855 5857 5858 5860 5861 5863 5864 5864 5865 5865 5865 5865 5865 5865 5865 5864 5864 5864 5865 5866 5866 5867 5868 5869 5870 5872 5873 5875 5876 5878 5880 5882 5883 5884 5886 5887 5888 5889 5890 5891 5892 5892 5893
5833 5836 5838 5841 5844 5847 5850 5853 5854 5856 5857 5859 5860 5861 5861 5862 5862 5862 5862 5862 5862 5861 5861 5862 5862 5863 5864 5864 5865 5866 5867 5869 5871 5872 5874 5876 5878 5879 5881 5882 5883 5885 5886 5888 5889 5890 5890 5891 5891
5827 5830 5833 5836 5840 5843 5845 5849 5852 5852 5853 5855 5856 5857 5857 5858 5859 5859 5859 5859 5859 5858 5858 5859 5859 5860 5860 5861 5862 5863 5864 5866 5868 5870 5872 5873 5875 5877 5878 5880 5881 5883 5884 5886 5887 5888 5889 5889 5890
5820 5825 5828 5831 5835 5838 5841 5845 5848 5848 5850 5851 5852 5853 5853 5854 5855 5855 5856 5856 5855 5855 5855 5855 5856 5857 5857 5858 5859 5860 5861 5863 5865 5868 5869 5871 5873 5874 5876 5877 5879 5880 5882 5883 5884 5886 5887 5887 5888
5815 5820 5824 5826 5829 5833 5837 5839 5843 5844 5846 5847 5848 5849 5849 5850 5851 5852 5852 5852 5852 5852 5852 5852 5852 5853 5854 5855 5856 5857 5859 5860 5863 5865 5866 5868 5870 5872 5873 5875 5876 5878 5879 5881 5882 5883 5885 5885 5886
5810 5815 5820 5824 5827 5830 5831 5834 5838 5839 5841 5842 5843 5844 5846 5847 5847 5848 5848 5848 5848 5848 5848 5849 5849 5850 5850 5851 5852 5854 5855 5857 5860 5862 5863 5865 5867 5869 5870 5872 5873 5875 5876 5878 5879 5881 5882 5883 5884
5804 5808 5815 5819 5822 5826 5827 5830 5833 5835 5836 5838 5839 5840 5841 5843 5844 5844 5844 5844 5844 5845 5845 5845 5846 5846 5847 5848 5849 5851 5853 5855 5856 5858 5860 5862 5864 5865 5867 5868 5870 5871 5873 5874 5876 5877 5879 5880 5881
5798 5804 5807 5812 5816 5821 5824 5826 5829 5830 5832 5833 5834 5836 5837 5839 5840 5840 5840 5840 5841 5841 5842 5842 5843 5843 5844 5845 5847 5848 5850 5851 5853 5855 5857 5858 5860 5862 5864 5865 5866 5868 5869 5871 5873 5874 5875 5876 5877
5793 5797 5801 5807 5812 5818 5822 5825 5824 5826 5828 5829 5830 5832 5833 5835 5835 5836 5837 5837 5837 5838 5838 5839 5839 5840 5841 5842 5844 5845 5846 5848 5849 5851 5853 5855 5856 5858 5860 5861 5862 5864 5865 5867 5868 5870 5871 5873 5874
5787 5792 5797 5803 5807 5812 5817 5822 5819 5821 5823 5825 5826 5828 5829 5831 5831 5832 5833 5833 5834 5835 5835 5836 5836 5837 5838 5839 5840 5841 5843 5844 5846 5847 5849 5851 5852 5854 5855 5856 5858 5860 5861 5863 5864 5865 5867 5868 5869